Valdosta Regional, GA

5:12 AM EDT on May 24, 2017 (GMT -0400)
Valdosta Regional

Weather History for KVLD - December, 2012

Change the Weather History Date:

Friday, December 28, 2012

  Actual Average Record
Temperature  
Mean Temperature 47 °F 51 °F  
Max Temperature 62 °F 63 °F 83 °F (2015)
Min Temperature 32 °F 40 °F 21 °F (2010)
Degree Days  
Heating Degree Days 18 14  
Month to date heating degree days 180 339  
Since 1 July heating degree days 393 570  
Moisture  
Dew Point 38 °F    
Average Humidity 68    
Maximum Humidity 89    
Minimum Humidity 46    
Precipitation  
Precipitation T in 0.07 in 1.47 in (2000)
Month to date precipitation 2.66 2.95  
Year to date precipitation 42.68 50.38  
Sea Level Pressure  
Sea Level Pressure 30.05 in    
Wind  
Wind Speed 3 mph (SE)    
Max Wind Speed 9 mph    
Max Gust Speed 12 mph    
Visibility 8 miles    
Events Rain    
T = Trace of Precipitation, MM = Missing Value Source: NWS Daily Summary

Daily Weather History Graph

Daily Weather History Graph

Search for Another Location

Airport or City:

Trip Planner

Search our weather history database for the weather conditions in past years. The results will help you decide how hot, cold, wet, or windy it might be!

Date:

Astronomy

Dec. 28, 2012 Rise Set
Actual Time 7:29 AM EST 5:40 PM EST
Civil Twilight 7:03 AM EST 6:06 PM EST
Nautical Twilight 6:33 AM EST 6:36 PM EST
Astronomical Twilight 6:03 AM EST 7:06 PM EST
Moon 6:11 PM EST (12/28) 7:26 AM EST (12/28)
Length of Visible Light 11h 03m
Length of Day
10h 10m
Full, 100% of the Moon is Illuminated
Dec 28
Full
Jan 4
Last Quarter
Jan 11
New
Jan 18
First Quarter
Jan 26
Full

Hourly Weather History & Observations

Time (EST) Temp. Windchill Dew Point Humidity Pressure Visibility Wind Dir Wind Speed Gust Speed Precip Events Conditions
12:53 AM 34.0 °F - 30.0 °F 85% 30.12 in 5.0 mi Calm Calm - N/A   Clear
1:53 AM 33.1 °F - 30.0 °F 89% 30.13 in 4.0 mi Calm Calm - 0.01 in   Clear
2:53 AM 33.1 °F - 30.0 °F 89% 30.13 in 4.0 mi Calm Calm - N/A   Clear
3:53 AM 33.1 °F - 28.9 °F 85% 30.14 in 3.0 mi Calm Calm - N/A   Clear
4:53 AM 33.1 °F - 28.9 °F 85% 30.14 in 4.0 mi Calm Calm - N/A   Clear
6:53 AM 33.1 °F - 30.0 °F 89% 30.16 in 5.0 mi Calm Calm - N/A   Clear
7:53 AM 34.0 °F - 30.0 °F 85% 30.16 in 4.0 mi Calm Calm - N/A   Clear
8:53 AM 39.0 °F - 36.0 °F 89% 30.16 in 4.0 mi Calm Calm - N/A   Mostly Cloudy
9:53 AM 45.0 °F 41.2 °F 37.9 °F 76% 30.14 in 10.0 mi ESE 6.9 mph - N/A   Mostly Cloudy
10:53 AM 48.9 °F - 37.9 °F 66% 30.14 in 10.0 mi SE 4.6 mph - N/A   Mostly Cloudy
11:53 AM 52.0 °F - 37.9 °F 59% 30.11 in 10.0 mi SSE 5.8 mph - N/A   Mostly Cloudy
1:53 PM 57.9 °F - 39.9 °F 51% 30.03 in 10.0 mi Calm Calm - N/A   Mostly Cloudy
2:53 PM 61.0 °F - 39.0 °F 44% 30.01 in 10.0 mi Calm Calm - N/A   Mostly Cloudy
3:53 PM 61.0 °F - 39.0 °F 44% 30.02 in 10.0 mi East 4.6 mph - N/A   Clear
4:53 PM 59.0 °F - 41.0 °F 51% 30.02 in 10.0 mi East 3.5 mph - 0.01 in   Clear
5:53 PM 57.0 °F - 42.1 °F 57% 30.01 in 10.0 mi Calm Calm - N/A   Mostly Cloudy
6:53 PM 55.9 °F - 42.1 °F 60% 30.01 in 10.0 mi ESE 3.5 mph - N/A   Overcast
8:53 PM 55.9 °F - 42.1 °F 60% 29.97 in 10.0 mi SE 5.8 mph - N/A   Overcast
9:53 PM 55.9 °F - 42.1 °F 60% 29.96 in 10.0 mi SE 4.6 mph - N/A   Mostly Cloudy
10:13 PM 55.4 °F - 42.8 °F 63% 29.92 in 10.0 mi SE 6.9 mph - N/A   Overcast
10:41 PM 57.2 °F - 42.8 °F 59% 29.91 in 10.0 mi SSE 5.8 mph - N/A   Overcast
10:53 PM 57.0 °F - 43.0 °F 59% 29.93 in 10.0 mi SSE 5.8 mph - N/A   Overcast
11:41 PM 53.6 °F - 46.4 °F 77% 29.89 in 4.0 mi SE 5.8 mph - 0.00 in Rain Rain
11:53 PM 54.0 °F - 48.0 °F 80% 29.90 in 10.0 mi SSE 8.1 mph - 0.00 in   Overcast